Location: Emblem
(62.4273°N, 6.4710°E)
Time: 18:58:29
(UTC+01:00)

SR - Visible Passes

Search period start: 07 February 2023 00:00
Search period end: 17 February 2023 00:00
Orbit: 581 x 869 km, 66.7° (Epoch: 06 February)

Date Brightness Start Highest point End Pass type
(mag) Time Alt. Az. Time Alt. Az. Time Alt. Az.
07 Feb ? 19:07:56 10° WNW 19:12:25 51° N 19:14:17 30° ENE visible
07 Feb ? 20:50:13 10° WNW 20:53:38 51° WNW 20:53:38 51° WNW visible
07 Feb ? 22:32:32 10° WNW 22:32:59 12° WNW 22:32:59 12° WNW visible
08 Feb ? 18:17:14 10° WNW 18:21:44 49° N 18:25:12 15° ENE visible
08 Feb ? 19:59:41 10° WNW 20:04:11 70° NNE 20:04:34 66° ENE visible
08 Feb ? 21:41:51 10° WNW 21:43:55 25° WNW 21:43:55 25° WNW visible
09 Feb ? 19:09:06 10° WNW 19:13:35 57° NNE 19:15:30 30° E visible
09 Feb ? 20:51:18 10° WNW 20:54:52 52° W 20:54:52 52° W visible
09 Feb ? 22:33:55 10° WNW 22:34:13 11° WNW 22:34:13 11° WNW visible
10 Feb ? 18:18:28 10° WNW 18:22:55 50° N 18:26:29 14° E visible
10 Feb ? 20:00:46 10° WNW 20:05:15 89° NE 20:05:51 66° ESE visible
10 Feb ? 21:43:02 10° WNW 21:45:12 23° W 21:45:12 23° W visible
11 Feb ? 19:10:13 10° WNW 19:14:41 68° NNE 19:16:51 28° E visible
11 Feb ? 20:52:23 10° WNW 20:56:13 44° WSW 20:56:13 44° WSW visible
12 Feb ? 18:19:38 10° WNW 18:24:05 55° NNE 18:27:54 12° E visible
12 Feb ? 20:01:49 10° WNW 20:06:13 69° SW 20:07:15 48° SSE visible
12 Feb ? 21:44:21 10° WNW 21:46:37 19° W 21:46:37 19° W visible
13 Feb ? 19:11:17 10° WNW 19:15:45 85° NNE 19:18:21 23° ESE visible
13 Feb ? 20:53:31 10° WNW 20:57:22 31° SW 20:57:43 31° SW visible
14 Feb ? 18:20:44 10° WNW 18:25:11 65° NNE 18:29:26 10° ESE visible
14 Feb ? 20:02:53 10° WNW 20:07:06 48° SW 20:08:52 30° S visible
14 Feb ? 21:46:06 10° W 21:48:06 13° WSW 21:48:14 13° WSW visible
15 Feb ? 19:12:20 10° WNW 19:16:44 73° SW 19:20:04 16° SE visible
15 Feb ? 20:54:47 10° WNW 20:58:04 21° WSW 20:59:27 18° SW visible
16 Feb ? 18:21:48 10° WNW 18:26:14 81° NNE 18:30:30 10° ESE visible
16 Feb ? 20:04:00 10° WNW 20:07:54 33° SW 20:10:45 16° S visible
